User: anonymous   Login
Location: Unspecified
(0.0000°N, 0.0000°E)
Time: 19:00:45
(UTC+02:00)
Language:

Gurwin Techsat 1B - Orbit

View from above orbital plane
View from above orbital plane
View from above satellite
View from above satellite

Ground track
Ground track

The orbit data is extracted from the following two-line orbital elements,

1 25397U 98043D   16182.42445956 -.00000014  00000-0  12620-4 0  9998
2 25397  98.5676 127.0230 0000779   9.7513 350.3681 14.23597061933742
Epoch (UTC): 30 June 2016 10:11:13
Eccentricity: 0.0000779
inclination: 98.5676°
perigee height: 812 km
apogee height: 814 km
right ascension of ascending node: 127.0230°
argument of perigee: 9.7513°
revolutions per day: 14.23597061
mean anomaly at epoch: 350.3681°
orbit number at epoch: 93374

The dashed part of the orbit path shows where the satellite is in the earth's shadow,  

DLR